{"data":{"norad_id":48268,"epoch":"2026-09-19T22:24:29.017152Z","epoch_age_seconds":67227,"freshness":"FRESH","line1":"1 48268U 21034A   26262.93366918 -.00000291  00000+0 -30403-4 0  9998","line2":"2 48268  97.8948 336.3383 0001443  83.5842 276.5536 14.81672328291688","mean_motion":14.81672328,"eccentricity":0.0001443,"inclination_deg":97.8948,"raan_deg":336.3383,"arg_perigee_deg":83.5842,"mean_anomaly_deg":276.5536,"bstar":-3.0403e-5,"rev_number":29168,"period_min":97.187480172742,"perigee_km":623.03995793256,"apogee_km":625.06078920857,"semimajor_km":7002.1873735706,"source":"CELESTRAK","updated_at":"2026-09-20T09:00:33.977027Z"}}